QPF
0.00 0.01 0.01 0.03 0.05 0.05 0.06 0.06 0.05 0.05 0.05 0.06 0.05 0.04 0.03 0.02 0.02 0.03 0.06 0.06 0.05 0.03 0.03 0.03 0.03 0.03 0.03 0.02 0.02 0.02 0.02 0.02 0.02 0.01 0.01 0.01 0.01 0.01 0.01 0.01 0.02 0.02 0.02
0.01 0.01 0.02 0.03 0.05 0.07 0.07 0.06 0.06 0.05 0.05 0.05 0.05 0.04 0.05 0.04 0.03 0.03 0.06 0.07 0.06 0.05 0.05 0.04 0.04 0.04 0.03 0.03 0.02 0.01 0.01 0.01 0.00 0.00 0.01 0.01 0.01 0.01 0.01 0.01 0.01 0.02 0.03
0.01 0.01 0.02 0.04 0.05 0.07 0.06 0.07 0.06 0.05 0.05 0.06 0.06 0.06 0.06 0.05 0.03 0.04 0.05 0.06 0.06 0.06 0.06 0.06 0.05 0.04 0.03 0.02 0.02 0.01 0.01 0.00 0.00 0.00 0.01 0.01 0.01 0.01 0.01 0.01 0.01 0.02 0.02
0.01 0.01 0.01 0.02 0.04 0.06 0.06 0.06 0.06 0.06 0.05 0.05 0.06 0.07 0.06 0.05 0.04 0.03 0.04 0.06 0.06 0.07 0.05 0.04 0.04 0.03 0.03 0.02 0.03 0.02 0.01 0.00 0.00 0.01 0.01 0.01 0.01 0.02 0.01 0.01 0.02 0.02 0.02
0.02 0.01 0.01 0.01 0.02 0.04 0.06 0.05 0.06 0.06 0.06 0.06 0.06 0.07 0.06 0.05 0.05 0.04 0.03 0.05 0.06 0.05 0.04 0.04 0.02 0.02 0.03 0.02 0.02 0.02 0.01 0.00 0.01 0.01 0.01 0.01 0.01 0.02 0.01 0.01 0.02 0.02 0.01
0.02 0.02 0.02 0.02 0.02 0.03 0.06 0.06 0.05 0.06 0.06 0.07 0.07 0.07 0.07 0.06 0.04 0.04 0.04 0.05 0.05 0.04 0.04 0.03 0.02 0.02 0.02 0.01 0.02 0.01 0.01 0.00 0.00 0.01 0.01 0.01 0.01 0.02 0.02 0.01 0.01 0.01 0.02
0.02 0.02 0.02 0.02 0.02 0.03 0.06 0.08 0.06 0.06 0.06 0.06 0.08 0.09 0.09 0.08 0.05 0.03 0.05 0.04 0.04 0.04 0.03 0.03 0.03 0.01 0.02 0.02 0.01 0.01 0.01 0.00 0.01 0.01 0.01 0.01 0.02 0.03 0.02 0.02 0.01 0.02 0.02
0.02 0.02 0.03 0.03 0.03 0.03 0.04 0.08 0.09 0.07 0.06 0.06 0.08 0.10 0.11 0.11 0.07 0.03 0.04 0.04 0.04 0.04 0.03 0.03 0.03 0.02 0.02 0.02 0.02 0.01 0.00 0.00 0.01 0.01 0.01 0.02 0.02 0.03 0.02 0.02 0.02 0.03 0.02
0.01 0.01 0.01 0.01 0.02 0.03 0.03 0.07 0.10 0.09 0.07 0.05 0.07 0.09 0.10 0.11 0.09 0.04 0.03 0.02 0.03 0.03 0.03 0.04 0.04 0.02 0.02 0.02 0.02 0.01 0.00 0.00 0.01 0.01 0.01 0.02 0.02 0.02 0.02 0.02 0.02 0.02 0.02
0.01 0.01 0.01 0.01 0.01 0.01 0.02 0.05 0.09 0.10 0.09 0.07 0.06 0.09 0.10 0.10 0.09 0.06 0.03 0.02 0.03 0.03 0.03 0.04 0.04 0.02 0.02 0.01 0.02 0.01 0.00 0.01 0.01 0.01 0.02 0.01 0.01 0.02 0.02 0.02 0.02 0.02 0.03
0.01 0.01 0.01 0.01 0.01 0.01 0.02 0.05 0.08 0.11 0.11 0.09 0.09 0.09 0.12 0.12 0.12 0.11 0.07 0.04 0.03 0.02 0.03 0.05 0.04 0.02 0.02 0.01 0.01 0.00 0.00 0.01 0.01 0.02 0.02 0.01 0.02 0.02 0.03 0.03 0.02 0.02 0.03
0.02 0.02 0.02 0.01 0.01 0.02 0.03 0.04 0.06 0.10 0.12 0.11 0.10 0.10 0.12 0.15 0.14 0.14 0.10 0.06 0.04 0.02 0.04 0.05 0.03 0.01 0.01 0.02 0.01 0.00 0.01 0.01 0.02 0.03 0.03 0.02 0.02 0.02 0.02 0.02 0.02 0.02 0.02
0.02 0.02 0.02 0.01 0.01 0.01 0.02 0.04 0.06 0.09 0.13 0.12 0.10 0.10 0.11 0.13 0.12 0.12 0.11 0.08 0.06 0.03 0.05 0.06 0.04 0.02 0.02 0.02 0.01 0.01 0.01 0.01 0.02 0.03 0.03 0.03 0.03 0.02 0.02 0.02 0.03 0.03 0.02
0.02 0.02 0.02 0.02 0.02 0.02 0.02 0.03 0.05 0.09 0.14 0.14 0.11 0.09 0.09 0.11 0.10 0.10 0.13 0.10 0.07 0.04 0.05 0.06 0.04 0.02 0.01 0.01 0.02 0.02 0.02 0.02 0.03 0.02 0.01 0.02 0.02 0.02 0.02 0.02 0.03 0.03 0.03
0.01 0.03 0.05 0.05 0.03 0.02 0.02 0.02 0.03 0.07 0.13 0.17 0.13 0.10 0.07 0.08 0.08 0.09 0.13 0.13 0.10 0.06 0.04 0.05 0.05 0.03 0.02 0.01 0.02 0.02 0.02 0.02 0.03 0.02 0.01 0.02 0.02 0.03 0.03 0.03 0.03 0.03 0.03
0.03 0.06 0.07 0.04 0.03 0.02 0.03 0.03 0.03 0.06 0.11 0.16 0.16 0.14 0.10 0.07 0.07 0.09 0.11 0.13 0.11 0.07 0.05 0.05 0.05 0.04 0.02 0.02 0.02 0.02 0.02 0.02 0.02 0.02 0.02 0.01 0.02 0.03 0.05 0.04 0.03 0.03 0.03
0.03 0.05 0.05 0.03 0.03 0.03 0.03 0.03 0.03 0.05 0.10 0.15 0.15 0.14 0.14 0.11 0.09 0.10 0.10 0.11 0.10 0.07 0.05 0.04 0.05 0.04 0.02 0.02 0.02 0.02 0.02 0.02 0.03 0.02 0.02 0.01 0.01 0.02 0.04 0.04 0.04 0.03 0.03
0.01 0.02 0.03 0.03 0.03 0.03 0.03 0.02 0.03 0.05 0.09 0.15 0.17 0.14 0.12 0.11 0.11 0.10 0.10 0.10 0.08 0.06 0.05 0.04 0.04 0.04 0.02 0.02 0.03 0.03 0.03 0.03 0.03 0.03 0.02 0.01 0.01 0.01 0.02 0.03 0.03 0.03 0.03
0.00 0.00 0.01 0.02 0.02 0.03 0.03 0.02 0.02 0.05 0.08 0.14 0.18 0.17 0.13 0.09 0.09 0.10 0.10 0.11 0.09 0.07 0.06 0.06 0.04 0.04 0.02 0.02 0.03 0.04 0.04 0.04 0.05 0.03 0.02 0.02 0.02 0.01 0.01 0.02 0.02 0.02 0.03
0.00 0.00 0.01 0.02 0.02 0.03 0.04 0.02 0.02 0.04 0.07 0.12 0.16 0.19 0.16 0.11 0.08 0.08 0.09 0.11 0.10 0.09 0.08 0.07 0.05 0.04 0.02 0.01 0.03 0.04 0.04 0.05 0.05 0.04 0.02 0.01 0.01 0.02 0.02 0.01 0.01 0.01 0.02
0.01 0.01 0.01 0.02 0.03 0.04 0.04 0.04 0.02 0.03 0.06 0.12 0.15 0.19 0.19 0.13 0.09 0.09 0.10 0.11 0.10 0.10 0.10 0.10 0.07 0.05 0.02 0.01 0.02 0.04 0.05 0.05 0.06 0.06 0.04 0.02 0.01 0.01 0.01 0.02 0.02 0.01 0.01
0.01 0.01 0.01 0.03 0.04 0.04 0.05 0.04 0.02 0.02 0.05 0.11 0.15 0.19 0.20 0.16 0.10 0.10 0.10 0.09 0.09 0.09 0.10 0.12 0.09 0.05 0.03 0.02 0.02 0.03 0.05 0.06 0.06 0.06 0.06 0.03 0.01 0.01 0.01 0.01 0.02 0.02 0.02
0.01 0.01 0.01 0.02 0.03 0.04 0.04 0.05 0.03 0.02 0.05 0.10 0.15 0.21 0.22 0.18 0.12 0.10 0.09 0.07 0.08 0.09 0.09 0.12 0.11 0.07 0.05 0.03 0.02 0.03 0.04 0.05 0.06 0.06 0.05 0.05 0.03 0.02 0.02 0.02 0.01 0.02 0.02
0.01 0.00 0.01 0.01 0.02 0.04 0.05 0.06 0.04 0.03 0.05 0.08 0.12 0.19 0.21 0.19 0.15 0.12 0.10 0.06 0.06 0.07 0.07 0.10 0.11 0.07 0.05 0.03 0.03 0.03 0.03 0.03 0.04 0.06 0.06 0.05 0.04 0.03 0.02 0.02 0.02 0.02 0.02
0.01 0.00 0.00 0.01 0.01 0.03 0.05 0.06 0.05 0.04 0.04 0.07 0.11 0.16 0.20 0.19 0.15 0.14 0.12 0.06 0.05 0.06 0.06 0.08 0.10 0.09 0.06 0.03 0.02 0.03 0.03 0.04 0.03 0.04 0.05 0.06 0.05 0.04 0.02 0.02 0.01 0.01 0.02
0.02 0.01 0.01 0.01 0.01 0.02 0.05 0.06 0.07 0.05 0.05 0.07 0.10 0.15 0.21 0.20 0.17 0.14 0.13 0.08 0.06 0.06 0.07 0.07 0.08 0.08 0.07 0.05 0.02 0.02 0.03 0.04 0.04 0.03 0.03 0.04 0.05 0.05 0.03 0.02 0.01 0.01 0.01
MSLP
1024.76 1024.81 1024.59 1024.21 1023.78 1023.39 1023.06 1022.78 1022.52 1022.22 1021.85 1021.39 1020.85 1020.27 1019.69 1019.16 1018.70 1018.34 1018.06 1017.84 1017.66 1017.51 1017.37 1017.24 1017.12 1017.02 1016.95 1016.90 1016.88 1016.86 1016.83 1016.78 1016.71 1016.61 1016.49 1016.33 1016.17 1015.98 1015.79 1015.58 1015.37 1015.15 1014.92
1024.63 1024.68 1024.50 1024.19 1023.85 1023.54 1023.29 1023.08 1022.86 1022.59 1022.24 1021.81 1021.29 1020.75 1020.21 1019.71 1019.29 1018.94 1018.65 1018.42 1018.21 1018.02 1017.84 1017.67 1017.53 1017.42 1017.34 1017.29 1017.25 1017.20 1017.15 1017.07 1016.97 1016.85 1016.71 1016.57 1016.41 1016.25 1016.08 1015.89 1015.69 1015.47 1015.23
1024.73 1024.75 1024.58 1024.30 1024.01 1023.76 1023.54 1023.36 1023.16 1022.92 1022.60 1022.20 1021.73 1021.24 1020.76 1020.30 1019.90 1019.55 1019.24 1018.95 1018.69 1018.43 1018.20 1017.99 1017.83 1017.71 1017.62 1017.56 1017.51 1017.46 1017.38 1017.28 1017.16 1017.03 1016.90 1016.77 1016.64 1016.51 1016.38 1016.22 1016.03 1015.82 1015.58
1025.00 1024.99 1024.80 1024.54 1024.26 1024.02 1023.81 1023.63 1023.43 1023.20 1022.91 1022.55 1022.15 1021.72 1021.29 1020.88 1020.49 1020.12 1019.76 1019.41 1019.06 1018.73 1018.43 1018.18 1017.99 1017.86 1017.78 1017.72 1017.67 1017.61 1017.52 1017.41 1017.28 1017.16 1017.04 1016.94 1016.86 1016.78 1016.68 1016.56 1016.40 1016.20 1015.97
1025.35 1025.30 1025.11 1024.84 1024.57 1024.32 1024.09 1023.89 1023.68 1023.45 1023.17 1022.86 1022.51 1022.15 1021.78 1021.40 1021.02 1020.62 1020.21 1019.78 1019.35 1018.94 1018.58 1018.28 1018.06 1017.93 1017.85 1017.80 1017.76 1017.70 1017.61 1017.49 1017.37 1017.25 1017.16 1017.10 1017.07 1017.04 1016.99 1016.91 1016.78 1016.60 1016.38
1025.66 1025.59 1025.40 1025.15 1024.88 1024.62 1024.38 1024.15 1023.92 1023.67 1023.41 1023.12 1022.83 1022.52 1022.20 1021.86 1021.49 1021.07 1020.60 1020.11 1019.60 1019.12 1018.70 1018.37 1018.13 1017.98 1017.91 1017.86 1017.82 1017.76 1017.67 1017.55 1017.44 1017.34 1017.29 1017.27 1017.28 1017.30 1017.31 1017.27 1017.17 1017.00 1016.80
1025.81 1025.76 1025.61 1025.39 1025.15 1024.90 1024.65 1024.40 1024.15 1023.89 1023.62 1023.36 1023.10 1022.84 1022.57 1022.26 1021.91 1021.48 1020.99 1020.45 1019.89 1019.36 1018.90 1018.53 1018.27 1018.11 1018.02 1017.97 1017.91 1017.84 1017.74 1017.62 1017.51 1017.43 1017.41 1017.43 1017.49 1017.56 1017.61 1017.60 1017.53 1017.38 1017.19
1025.78 1025.78 1025.69 1025.54 1025.35 1025.14 1024.91 1024.66 1024.39 1024.11 1023.84 1023.59 1023.35 1023.13 1022.90 1022.63 1022.31 1021.90 1021.41 1020.85 1020.27 1019.72 1019.22 1018.83 1018.54 1018.35 1018.23 1018.14 1018.06 1017.95 1017.83 1017.70 1017.59 1017.53 1017.53 1017.59 1017.69 1017.80 1017.88 1017.90 1017.85 1017.73 1017.55
1025.57 1025.63 1025.63 1025.58 1025.49 1025.35 1025.15 1024.92 1024.64 1024.36 1024.08 1023.82 1023.60 1023.41 1023.22 1022.99 1022.71 1022.34 1021.87 1021.33 1020.76 1020.20 1019.70 1019.27 1018.95 1018.72 1018.54 1018.40 1018.26 1018.10 1017.94 1017.78 1017.66 1017.61 1017.63 1017.72 1017.85 1017.99 1018.10 1018.15 1018.12 1018.02 1017.87
1025.26 1025.40 1025.50 1025.56 1025.57 1025.51 1025.38 1025.17 1024.91 1024.62 1024.33 1024.07 1023.86 1023.69 1023.52 1023.34 1023.10 1022.78 1022.36 1021.86 1021.32 1020.77 1020.26 1019.82 1019.46 1019.16 1018.92 1018.70 1018.48 1018.25 1018.03 1017.84 1017.70 1017.65 1017.69 1017.80 1017.96 1018.14 1018.27 1018.35 1018.34 1018.26 1018.13
1024.94 1025.15 1025.35 1025.51 1025.62 1025.64 1025.58 1025.41 1025.17 1024.88 1024.59 1024.33 1024.11 1023.95 1023.81 1023.66 1023.46 1023.18 1022.82 1022.37 1021.87 1021.34 1020.84 1020.38 1019.97 1019.62 1019.29 1018.98 1018.68 1018.37 1018.09 1017.86 1017.70 1017.64 1017.69 1017.83 1018.02 1018.21 1018.38 1018.48 1018.50 1018.44 1018.34
1024.69 1024.95 1025.22 1025.47 1025.65 1025.75 1025.74 1025.62 1025.40 1025.12 1024.83 1024.56 1024.34 1024.18 1024.04 1023.91 1023.75 1023.52 1023.20 1022.80 1022.34 1021.84 1021.35 1020.88 1020.43 1020.02 1019.62 1019.22 1018.82 1018.44 1018.10 1017.82 1017.63 1017.57 1017.62 1017.78 1017.99 1018.22 1018.42 1018.54 1018.59 1018.57 1018.51
1024.55 1024.85 1025.16 1025.45 1025.69 1025.83 1025.86 1025.77 1025.57 1025.31 1025.02 1024.75 1024.52 1024.35 1024.22 1024.10 1023.94 1023.74 1023.46 1023.10 1022.68 1022.22 1021.74 1021.26 1020.79 1020.33 1019.86 1019.39 1018.92 1018.46 1018.05 1017.72 1017.51 1017.44 1017.49 1017.66 1017.89 1018.15 1018.38 1018.54 1018.63 1018.65 1018.62
1024.53 1024.84 1025.15 1025.46 1025.71 1025.87 1025.91 1025.84 1025.66 1025.41 1025.13 1024.86 1024.64 1024.46 1024.32 1024.19 1024.04 1023.85 1023.59 1023.26 1022.88 1022.45 1022.00 1021.53 1021.05 1020.56 1020.05 1019.52 1018.98 1018.46 1017.99 1017.61 1017.35 1017.25 1017.30 1017.47 1017.72 1018.00 1018.26 1018.46 1018.60 1018.67 1018.69
1024.57 1024.87 1025.18 1025.46 1025.70 1025.85 1025.89 1025.82 1025.65 1025.42 1025.16 1024.90 1024.68 1024.50 1024.36 1024.22 1024.07 1023.88 1023.63 1023.33 1022.97 1022.58 1022.16 1021.72 1021.25 1020.75 1020.22 1019.64 1019.05 1018.47 1017.93 1017.49 1017.18 1017.04 1017.05 1017.20 1017.45 1017.75 1018.05 1018.30 1018.49 1018.61 1018.69
1024.59 1024.89 1025.18 1025.43 1025.63 1025.75 1025.78 1025.71 1025.55 1025.34 1025.11 1024.88 1024.67 1024.50 1024.35 1024.21 1024.05 1023.86 1023.62 1023.34 1023.02 1022.67 1022.30 1021.89 1021.45 1020.97 1020.42 1019.82 1019.18 1018.54 1017.93 1017.41 1017.02 1016.80 1016.76 1016.87 1017.10 1017.41 1017.74 1018.04 1018.29 1018.47 1018.61
1024.53 1024.85 1025.12 1025.35 1025.51 1025.60 1025.60 1025.53 1025.38 1025.20 1025.00 1024.80 1024.62 1024.47 1024.33 1024.18 1024.02 1023.84 1023.61 1023.36 1023.08 1022.77 1022.45 1022.09 1021.70 1021.23 1020.69 1020.07 1019.39 1018.68 1017.98 1017.36 1016.87 1016.55 1016.42 1016.47 1016.67 1016.96 1017.31 1017.66 1017.97 1018.23 1018.44
1024.36 1024.70 1024.98 1025.19 1025.32 1025.39 1025.38 1025.30 1025.18 1025.02 1024.85 1024.69 1024.55 1024.41 1024.29 1024.15 1024.00 1023.82 1023.62 1023.39 1023.15 1022.90 1022.63 1022.33 1021.98 1021.55 1021.02 1020.38 1019.66 1018.87 1018.09 1017.35 1016.74 1016.30 1016.06 1016.02 1016.15 1016.42 1016.78 1017.16 1017.54 1017.88 1018.17
1024.06 1024.46 1024.75 1024.96 1025.10 1025.15 1025.13 1025.06 1024.95 1024.82 1024.69 1024.56 1024.44 1024.33 1024.22 1024.09 1023.95 1023.79 1023.60 1023.41 1023.22 1023.02 1022.80 1022.56 1022.26 1021.86 1021.35 1020.70 1019.94 1019.09 1018.21 1017.37 1016.62 1016.05 1015.67 1015.52 1015.57 1015.80 1016.14 1016.56 1017.00 1017.41 1017.79
1023.69 1024.14 1024.48 1024.71 1024.85 1024.91 1024.90 1024.84 1024.74 1024.63 1024.51 1024.40 1024.30 1024.19 1024.09 1023.97 1023.83 1023.68 1023.52 1023.36 1023.21 1023.06 1022.90 1022.71 1022.45 1022.09 1021.60 1020.96 1020.18 1019.28 1018.32 1017.38 1016.51 1015.80 1015.30 1015.02 1014.98 1015.13 1015.45 1015.88 1016.36 1016.84 1017.30
1023.31 1023.81 1024.19 1024.45 1024.62 1024.69 1024.70 1024.64 1024.55 1024.43 1024.31 1024.19 1024.08 1023.97 1023.85 1023.73 1023.59 1023.45 1023.30 1023.17 1023.05 1022.94 1022.83 1022.68 1022.48 1022.16 1021.70 1021.08 1020.30 1019.39 1018.39 1017.38 1016.42 1015.60 1014.97 1014.57 1014.42 1014.49 1014.75 1015.16 1015.66 1016.20 1016.73
1022.98 1023.52 1023.94 1024.23 1024.42 1024.52 1024.53 1024.47 1024.37 1024.23 1024.09 1023.93 1023.78 1023.63 1023.48 1023.34 1023.18 1023.03 1022.90 1022.78 1022.68 1022.61 1022.53 1022.43 1022.27 1022.00 1021.60 1021.02 1020.29 1019.40 1018.41 1017.37 1016.37 1015.47 1014.74 1014.23 1013.95 1013.92 1014.10 1014.46 1014.94 1015.50 1016.09
1022.77 1023.32 1023.76 1024.08 1024.28 1024.39 1024.40 1024.33 1024.19 1024.02 1023.82 1023.60 1023.38 1023.18 1022.97 1022.78 1022.60 1022.43 1022.29 1022.18 1022.10 1022.04 1021.99 1021.93 1021.81 1021.61 1021.27 1020.78 1020.12 1019.31 1018.38 1017.38 1016.38 1015.44 1014.65 1014.04 1013.65 1013.49 1013.56 1013.83 1014.26 1014.81 1015.42
1022.71 1023.24 1023.66 1023.98 1024.19 1024.29 1024.29 1024.19 1024.01 1023.78 1023.50 1023.20 1022.90 1022.61 1022.34 1022.09 1021.87 1021.68 1021.52 1021.41 1021.33 1021.28 1021.25 1021.22 1021.15 1021.01 1020.76 1020.37 1019.83 1019.14 1018.32 1017.41 1016.46 1015.54 1014.72 1014.03 1013.54 1013.25 1013.19 1013.33 1013.66 1014.15 1014.74
1022.77 1023.25 1023.64 1023.94 1024.12 1024.21 1024.18 1024.04 1023.80 1023.50 1023.14 1022.75 1022.36 1021.99 1021.64 1021.33 1021.07 1020.85 1020.67 1020.54 1020.46 1020.41 1020.39 1020.38 1020.36 1020.28 1020.12 1019.85 1019.44 1018.90 1018.23 1017.46 1016.61 1015.75 1014.93 1014.20 1013.61 1013.20 1012.99 1012.98 1013.18 1013.56 1014.09
1022.93 1023.34 1023.67 1023.92 1024.07 1024.11 1024.04 1023.85 1023.56 1023.18 1022.74 1022.26 1021.79 1021.33 1020.92 1020.56 1020.26 1020.01 1019.82 1019.68 1019.58 1019.53 1019.51 1019.51 1019.51 1019.49 1019.41 1019.25 1018.99 1018.62 1018.11 1017.50 1016.78 1016.01 1015.23 1014.48 1013.82 1013.30 1012.94 1012.78 1012.82 1013.08 1013.51
Thickness
5681 5682 5683 5686 5688 5690 5691 5693 5694 5696 5697 5698 5700 5701 5702 5702 5703 5704 5705 5705 5706 5706 5706 5707 5707 5707 5707 5707 5707 5706 5706 5706 5706 5706 5705 5705 5705 5704 5704 5704 5703 5702 5702
5676 5678 5679 5681 5683 5685 5686 5688 5689 5691 5692 5693 5695 5696 5697 5698 5699 5700 5700 5701 5701 5702 5702 5703 5703 5703 5703 5702 5702 5702 5702 5702 5702 5702 5701 5701 5701 5701 5700 5700 5700 5699 5698
5672 5672 5673 5675 5677 5679 5681 5682 5684 5685 5686 5688 5689 5691 5693 5693 5694 5695 5696 5697 5697 5698 5698 5698 5698 5698 5698 5698 5698 5698 5698 5699 5699 5699 5698 5698 5697 5697 5696 5696 5696 5696 5695
5667 5667 5668 5669 5671 5673 5675 5677 5678 5680 5681 5683 5684 5686 5687 5689 5690 5690 5691 5692 5693 5693 5694 5694 5694 5694 5694 5694 5694 5694 5695 5695 5696 5696 5695 5694 5694 5693 5693 5692 5692 5692 5691
5660 5661 5662 5663 5665 5667 5669 5671 5672 5674 5676 5677 5679 5680 5682 5683 5685 5685 5686 5687 5687 5688 5689 5689 5690 5690 5689 5689 5690 5690 5690 5691 5692 5692 5692 5691 5690 5690 5689 5689 5688 5688 5687
5652 5653 5654 5656 5658 5660 5662 5664 5666 5668 5670 5671 5673 5675 5676 5677 5679 5680 5681 5682 5682 5683 5684 5684 5685 5685 5685 5685 5685 5685 5686 5687 5687 5688 5687 5687 5686 5686 5685 5684 5684 5684 5683
5644 5645 5646 5648 5650 5652 5654 5657 5659 5661 5664 5665 5667 5668 5669 5670 5672 5674 5675 5676 5677 5678 5678 5679 5679 5680 5680 5680 5680 5681 5682 5683 5683 5683 5683 5682 5682 5681 5681 5680 5680 5680 5679
5636 5637 5638 5639 5641 5643 5646 5648 5651 5654 5656 5658 5660 5662 5663 5665 5666 5667 5669 5670 5671 5672 5673 5673 5674 5674 5674 5674 5675 5675 5677 5678 5678 5678 5678 5677 5677 5677 5677 5676 5676 5675 5675
5627 5628 5629 5630 5632 5635 5637 5640 5643 5646 5648 5651 5653 5655 5657 5658 5659 5660 5662 5663 5665 5666 5667 5667 5668 5668 5669 5669 5670 5670 5671 5672 5672 5672 5672 5672 5672 5672 5672 5671 5671 5670 5670
5618 5619 5620 5621 5623 5625 5628 5631 5634 5637 5640 5643 5645 5647 5649 5650 5652 5653 5655 5656 5658 5659 5661 5661 5662 5662 5663 5663 5664 5665 5666 5666 5667 5667 5667 5666 5667 5667 5667 5667 5666 5666 5665
5609 5609 5609 5611 5613 5615 5618 5621 5624 5628 5631 5634 5637 5639 5641 5643 5644 5646 5648 5649 5651 5653 5654 5655 5655 5656 5657 5657 5658 5659 5660 5660 5661 5661 5661 5661 5661 5662 5662 5661 5661 5661 5660
5596 5597 5599 5600 5602 5605 5608 5611 5614 5618 5621 5624 5628 5630 5633 5635 5637 5639 5640 5642 5643 5645 5646 5647 5648 5649 5650 5651 5652 5653 5654 5654 5655 5655 5655 5656 5656 5656 5656 5656 5656 5656 5655
5586 5586 5587 5589 5591 5594 5597 5600 5604 5607 5611 5615 5618 5621 5624 5626 5629 5631 5632 5634 5636 5638 5638 5639 5641 5642 5644 5645 5646 5647 5648 5648 5648 5648 5648 5649 5650 5650 5650 5650 5650 5650 5650
5575 5575 5577 5578 5581 5583 5586 5589 5593 5596 5600 5604 5607 5611 5614 5617 5620 5622 5624 5626 5628 5629 5631 5632 5633 5635 5637 5638 5639 5641 5642 5642 5642 5641 5642 5642 5643 5644 5644 5644 5644 5645 5645
5564 5564 5565 5567 5569 5572 5575 5578 5581 5585 5588 5592 5596 5600 5604 5607 5610 5612 5616 5618 5619 5621 5623 5624 5626 5627 5629 5630 5632 5633 5634 5635 5635 5635 5635 5635 5636 5637 5637 5637 5638 5638 5639
5552 5552 5553 5555 5557 5561 5564 5566 5569 5573 5576 5581 5584 5589 5593 5597 5600 5603 5606 5609 5610 5611 5614 5616 5617 5619 5621 5622 5624 5625 5627 5627 5628 5628 5628 5628 5628 5629 5630 5630 5631 5632 5632
5541 5541 5542 5543 5545 5548 5551 5554 5557 5560 5564 5568 5572 5577 5581 5586 5589 5593 5596 5599 5601 5602 5604 5607 5608 5610 5612 5614 5615 5617 5618 5619 5620 5620 5620 5620 5621 5621 5622 5622 5624 5624 5625
5530 5530 5530 5531 5533 5536 5539 5541 5544 5548 5552 5556 5560 5565 5569 5574 5578 5581 5585 5588 5590 5592 5595 5597 5599 5600 5602 5603 5605 5607 5608 5610 5611 5612 5613 5613 5613 5613 5613 5614 5616 5616 5617
5519 5518 5518 5519 5521 5523 5526 5529 5532 5535 5539 5544 5548 5552 5556 5561 5565 5569 5573 5576 5579 5583 5585 5588 5589 5591 5592 5593 5595 5597 5599 5601 5602 5603 5604 5604 5605 5605 5605 5606 5607 5608 5608
5507 5506 5506 5507 5508 5511 5513 5517 5520 5523 5527 5531 5535 5539 5543 5548 5552 5557 5560 5564 5567 5571 5574 5576 5579 5581 5582 5584 5586 5587 5588 5591 5593 5594 5595 5596 5596 5597 5597 5598 5599 5599 5599
5495 5494 5495 5495 5497 5499 5502 5504 5507 5511 5514 5519 5523 5526 5531 5535 5539 5544 5548 5551 5555 5559 5563 5566 5569 5570 5571 5574 5576 5575 5577 5581 5582 5584 5585 5586 5587 5588 5588 5589 5590 5591 5591
5484 5484 5484 5484 5485 5488 5490 5493 5496 5499 5503 5506 5510 5515 5519 5522 5527 5532 5536 5540 5543 5547 5551 5556 5559 5559 5561 5564 5566 5566 5566 5568 5571 5574 5575 5577 5578 5579 5580 5580 5581 5582 5583
5475 5474 5475 5474 5475 5477 5479 5481 5485 5488 5491 5495 5499 5503 5507 5511 5516 5522 5526 5529 5532 5536 5541 5545 5548 5550 5551 5554 5556 5558 5558 5559 5559 5563 5565 5567 5568 5570 5571 5571 5572 5574 5574
5466 5465 5464 5465 5466 5467 5469 5471 5474 5477 5480 5484 5487 5492 5496 5501 5506 5510 5515 5519 5522 5526 5530 5534 5537 5539 5541 5544 5546 5549 5551 5553 5551 5551 5554 5556 5559 5560 5561 5563 5564 5565 5565
5458 5456 5455 5455 5456 5458 5460 5462 5464 5468 5471 5474 5478 5481 5486 5490 5495 5500 5505 5508 5512 5516 5520 5523 5526 5528 5531 5534 5536 5538 5541 5543 5544 5544 5544 5545 5548 5550 5552 5554 5555 5556 5556
5449 5447 5446 5446 5448 5449 5451 5453 5455 5458 5461 5465 5468 5471 5475 5479 5484 5489 5494 5498 5502 5505 5509 5513 5516 5518 5521 5524 5526 5528 5530 5532 5534 5535 5536 5536 5537 5539 5542 5544 5545 5547 5547